Location: Newark
(42.7133°N, 87.7910°W)
Time: 01:40:13
(UTC+00:00)

Vanguard 1 - Pass Details

Date: 29 September 2019
Orbit: 653 x 3830 km, 34.2° (Epoch: 18 October)

Event Time Altitude Azimuth Distance (km) Brightness Sun altitude
Rises 07:20:30 0° 253° (WSW) 7,229 - -44.0°
Reaches altitude 10° 07:24:57 10° 251° (WSW) 6,473 - -43.5°
Exits shadow 07:44:11 63° 208° (SSW) 4,092 12.7 -41.3°
Maximum altitude 07:47:28 67° 175° (S) 3,982 12.7 -40.8°
Drops below altitude 10° 08:07:34 10° 99° (E) 5,888 14.4 -38.2°
Sets 08:11:23 0° 96° (E) 6,581 14.8 -37.6°
